This is the latest recevied weather packets stored in our database for station/object DB0SMU-12. If no packets are shown the sender has not sent any weather packets the latest 1 day(s).
| Time | Temp. | Humidity | Pressure | Rain* | Wind** | Luminosity | Snow |
|---|---|---|---|---|---|---|---|
| 1777976059 | 20° C | 49% | 1009 hPa | 0 mm | 0.89 m/s, 46° | - | - |
| 1777975867 | 20° C | 50% | 1008.9 hPa | 0 mm | 0.89 m/s, 319° | - | - |
| 1777975687 | 19.44° C | 47% | 1008.9 hPa | 0 mm | 1.79 m/s, 306° | - | - |
| 1777975506 | 19.44° C | 48% | 1009 hPa | 0 mm | 0.89 m/s, 69° | - | - |
| 1777975325 | 19.44° C | 48% | 1009 hPa | 0 mm | 1.34 m/s, 38° | - | - |
| 1777975144 | 19.44° C | 48% | 1009.1 hPa | 0 mm | 0.89 m/s, 30° | - | - |
| 1777974963 | 19.44° C | 50% | 1009.1 hPa | 0 mm | 1.34 m/s, 60° | - | - |
| 1777974782 | 19.44° C | 53% | 1009.1 hPa | 0 mm | 1.34 m/s, 47° | - | - |
| 1777974602 | 20° C | 51% | 1009.1 hPa | 0 mm | 1.34 m/s, 20° | - | - |
| 1777974421 | 20° C | 55% | 1009.2 hPa | 0 mm | 1.34 m/s, 98° | - | - |
| 1777974240 | 19.44° C | 55% | 1009.2 hPa | 0 mm | 0.89 m/s, 139° | - | - |
| 1777974059 | 19.44° C | 54% | 1009.3 hPa | 0 mm | 1.79 m/s, 83° | - | - |
| 1777973878 | 20° C | 53% | 1009.2 hPa | 0 mm | 2.24 m/s, 53° | - | - |
| 1777973697 | 20.56° C | 53% | 1009.2 hPa | 0 mm | 0.89 m/s, 262° | - | - |
| 1777973516 | 20.56° C | 53% | 1009.4 hPa | 0 mm | 1.79 m/s, 139° | - | - |
| 1777973335 | 20.56° C | 52% | 1009.3 hPa | 0 mm | 0.89 m/s, 137° | - | - |
| 1777973154 | 20° C | 53% | 1009.4 hPa | 0 mm | 1.34 m/s, 63° | - | - |
| 1777972974 | 19.44° C | 53% | 1009.4 hPa | 0 mm | 0.89 m/s, 18° | - | - |
| 1777972793 | 20° C | 54% | 1009.6 hPa | 0 mm | 0.89 m/s, 223° | - | - |
| 1777972612 | 20° C | 56% | 1009.6 hPa | 0 mm | 1.79 m/s, 221° | - | - |
| 1777972431 | 19.44° C | 57% | 1009.7 hPa | 0 mm | 0.89 m/s, 256° | - | - |
| 1777972250 | 19.44° C | 57% | 1009.7 hPa | 0 mm | 1.34 m/s, 192° | - | - |
| 1777972069 | 18.89° C | 59% | 1009.7 hPa | 0 mm | 0.89 m/s, 241° | - | - |
| 1777971888 | 18.89° C | 59% | 1009.8 hPa | 0 mm | 1.79 m/s, 203° | - | - |
| 1777971707 | 18.33° C | 59% | 1009.8 hPa | 0 mm | 1.34 m/s, 216° | - | - |
* Rain latest hour (hover to see other rain measurements)
** Current wind speed in m/s (hover to see current wind gust speed)